Kalaeloa, HI

12:28 PM HST on December 18, 2017 (GMT -1000)
Kalaeloa (John Rodgers Field)

Weather History for PHJR - April, 2014

Change the Weather History Date:

Tuesday, April 1, 2014

  Actual Average (PHHI) Record (PHHI)
Temperature  
Mean Temperature 78 °F -  
Max Temperature 84 °F 74 °F 84 °F (2004)
Min Temperature 71 °F 62 °F 57 °F (2002)
Cooling Degree Days 12    
Growing Degree Days 28 (Base 50)    
Moisture  
Dew Point 65 °F    
Average Humidity 70    
Maximum Humidity 85    
Minimum Humidity 51    
Precipitation  
Precipitation 0.00 in - - ()
Sea Level Pressure  
Sea Level Pressure 30.07 in    
Wind  
Wind Speed 5 mph (ENE)    
Max Wind Speed 13 mph    
Max Gust Speed 28 mph    
Visibility 10 miles    
Events Rain    
Averages and records for this station are not official NWS values.
T = Trace of Precipitation, MM = Missing Value Source: NWS Daily Summary

Daily Weather History Graph

Daily Weather History Graph

Search for Another Location

Airport or City:

Trip Planner

Search our weather history database for the weather conditions in past years. The results will help you decide how hot, cold, wet, or windy it might be!

Date:

Astronomy

Apr. 01, 2014 Rise Set
Actual Time 6:25 AM HST 6:47 PM HST
Civil Twilight 6:02 AM HST 7:09 PM HST
Nautical Twilight 5:36 AM HST 7:35 PM HST
Astronomical Twilight 5:10 AM HST 8:01 PM HST
Moon 7:51 AM HST (4/1) 9:02 PM HST (4/1)
Length of Visible Light 13h 06m
Length of Day
12h 22m
Waxing Crescent, 6% of the Moon is Illuminated
Apr 1
Waxing Crescent
Apr 6
First Quarter
Apr 14
Full
Apr 21
Last Quarter
Apr 28
New

Hourly Weather History & Observations

Time (HST) Temp. Heat Index Dew Point Humidity Pressure Visibility Wind Dir Wind Speed Gust Speed Precip Events Conditions
12:53 AM 72.0 °F - 64.0 °F 76% 30.06 in 10.0 mi Variable 4.6 mph - N/A   Clear
1:53 AM 71.1 °F - 64.0 °F 78% 30.05 in 10.0 mi Calm Calm - N/A   Partly Cloudy
2:53 AM 71.1 °F - 64.0 °F 78% 30.04 in 10.0 mi Calm Calm - N/A   Clear
3:53 AM 71.1 °F - 64.0 °F 78% 30.03 in 10.0 mi Variable 3.5 mph - N/A   Clear
4:53 AM 71.1 °F - 64.0 °F 78% 30.04 in 10.0 mi Variable 3.5 mph - N/A   Clear
5:53 AM 71.1 °F - 64.0 °F 78% 30.05 in 10.0 mi ENE 3.5 mph - N/A   Clear
6:53 AM 72.0 °F - 64.9 °F 78% 30.07 in 10.0 mi Variable 3.5 mph - N/A   Clear
7:53 AM 73.0 °F - 66.0 °F 79% 30.09 in 10.0 mi Variable 3.5 mph - N/A   Partly Cloudy
8:53 AM 73.9 °F - 69.1 °F 85% 30.10 in 9.0 mi East 5.8 mph - 0.00 in Rain Light Rain
9:53 AM 80.1 °F 82.1 °F 66.0 °F 62% 30.10 in 10.0 mi East 8.1 mph 18.4 mph 0.00 in   Scattered Clouds
10:53 AM 82.9 °F 85.0 °F 66.0 °F 56% 30.09 in 10.0 mi ENE 9.2 mph 23.0 mph N/A   Partly Cloudy
11:53 AM 84.9 °F 86.6 °F 64.9 °F 51% 30.07 in 10.0 mi Variable 6.9 mph 24.2 mph N/A   Partly Cloudy
12:53 PM 82.0 °F 83.8 °F 64.9 °F 56% 30.06 in 10.0 mi ENE 10.4 mph 25.3 mph N/A   Mostly Cloudy
1:53 PM 82.0 °F 83.8 °F 64.9 °F 56% 30.04 in 10.0 mi East 9.2 mph 20.7 mph N/A   Scattered Clouds
2:53 PM 82.9 °F 84.6 °F 64.9 °F 54% 30.03 in 10.0 mi ENE 8.1 mph 24.2 mph N/A   Mostly Cloudy
3:53 PM 79.0 °F - 66.0 °F 64% 30.03 in 10.0 mi ENE 12.7 mph 27.6 mph N/A   Mostly Cloudy
4:53 PM 80.1 °F 82.1 °F 66.0 °F 62% 30.03 in 10.0 mi ENE 10.4 mph 20.7 mph N/A   Partly Cloudy
5:53 PM 78.1 °F - 66.0 °F 66% 30.04 in 10.0 mi ENE 11.5 mph 20.7 mph N/A   Partly Cloudy
6:53 PM 75.9 °F - 66.0 °F 71% 30.06 in 10.0 mi ENE 9.2 mph - N/A   Clear
7:53 PM 75.0 °F - 66.0 °F 73% 30.08 in 10.0 mi Variable 6.9 mph - N/A   Clear
8:53 PM 75.0 °F - 66.0 °F 73% 30.10 in 10.0 mi ENE 8.1 mph - N/A   Clear
9:53 PM 75.0 °F - 66.0 °F 73% 30.11 in 10.0 mi Variable 4.6 mph - N/A   Partly Cloudy
10:53 PM 75.0 °F - 66.0 °F 73% 30.12 in 10.0 mi ENE 9.2 mph - N/A   Clear
11:53 PM 73.9 °F - 64.9 °F 73% 30.12 in 10.0 mi Variable 6.9 mph - N/A   Clear